Regional Weather Roundup
Issued by NWS

Home | Current Version | Previous Version | Text Only | Print | Product List | Glossary On
Versions: 1 2 3 4 5 6 7 8 9 10 11 12 13 14 15 16 17 18 19 20 21 22 23 24 25 26 27 28 29 30 31 32 33 34 35 36 37 38 39 40 41 42 43 44 45 46 47 48 49 50
000
ASUS42 KFFC 091210
RWRGA
WEATHER ROUNDUP FOR GEORGIA
NATIONAL WEATHER SERVICE PEACHTREE CITY GA
700 AM EST FRI DEC 09 2016

NOTE: "FAIR" INDICATES FEW OR NO CLOUDS BELOW 12,000 FEET WITH NO
SIGNIFICANT WEATHER AND/OR OBSTRUCTIONS TO VISIBILITY.

* = USE WITH CAUTION. THE STATIONS MARKED WITH AN ASTERISK MAY NOT
REPORT WEATHER SUCH AS PRECIPITATION, FOG, OR THUNDER AND ARE NOT
QUALITY CONTROLLED BY NWS.

THE REMARK "TC" DENOTES TEMPERATURE READING IN DEGREES CELSIUS.

GAZ001>058-091300-
NORTH GEORGIA

CITY           SKY/WX    TMP DP  RH WIND       PRES   REMARKS
ATLANTA        CLEAR     28  16  60 NW14      30.42R WCI  17
6HR MIN TEMP:  28; 6HR MAX TEMP:  35;

ATHENS         CLEAR     27  17  66 NW6       30.38R WCI  20
6HR MIN TEMP:  27; 6HR MAX TEMP:  36;

CHAMBLEE       CLEAR     27  14  58 NW8       30.42R WCI  19
6HR MIN TEMP:  27; 6HR MAX TEMP:  33;

PEACHTREE CITY CLEAR     28  16  60 NW10      30.45R WCI  19
6HR MIN TEMP:  28; 6HR MAX TEMP:  35;

ROME           CLEAR     27  16  63 N6        30.49R WCI  20
6HR MIN TEMP:  26; 6HR MAX TEMP:  33;

WEST ATLANTA   CLEAR     28  15  58 NW7       30.45R WCI  21
6HR MIN TEMP:  28; 6HR MAX TEMP:  34;

GAINESVILLE    CLEAR     27  15  61 W13       30.38R WCI  16
6HR MIN TEMP:  27; 6HR MAX TEMP:  32;

CARTERSVILLE   CLEAR     27  16  63 VRB3      30.48R
6HR MIN TEMP:  27; 6HR MAX TEMP:  32;



CITY           SKY/WX    TMP DP  RH WIND       PRES   REMARKS
DALTON*        CLEAR     27  19  74 NW7       30.49R WCI  19
LAWRENCEVILLE* CLEAR     28  16  59 W9        30.41  WCI  20
MARIETTA       CLEAR     27  14  58 NW12      30.42R WCI  17
KENNESAW*      CLEAR     27  14  59 N9          N/A  WCI  17
CANTON*        CLEAR     27  12  54 NW6       30.42R WCI  20
$$

GAZ059>098-102>109-091300-
CENTRAL GEORGIA

CITY           SKY/WX    TMP DP  RH WIND       PRES   REMARKS
AUGUSTA-BUSH   CLEAR     30  22  72 CALM      30.39R
6HR MIN TEMP:  30; 6HR MAX TEMP:  42;

AUGUSTA-DANIEL CLEAR     33  21  61 NW5       30.39R WCI  29
6HR MIN TEMP:  33; 6HR MAX TEMP:  42;

COLUMBUS       CLEAR     31  15  52 VRB6      30.46R WCI  25
6HR MIN TEMP:  31; 6HR MAX TEMP:  39;

MACON          CLEAR     32  18  56 NW8       30.42R WCI  25
6HR MIN TEMP:  32; 6HR MAX TEMP:  39;

ROBINS AFB     CLEAR     33  19  57 N10       30.42R WCI  25


CITY           SKY/WX    TMP DP  RH WIND       PRES   REMARKS
LAGRANGE*      CLEAR     31  20  63 N3        30.46R
SYLVANIA*      CLEAR    N/A N/A N/A NW5       30.39R
MILLEDGEVILLE* CLEAR     32  27  80 NW8       30.42R WCI  25
$$

GAZ099>101-110>166-091300-
SOUTH GEORGIA

CITY           SKY/WX    TMP DP  RH WIND       PRES   REMARKS
SAVANNAH       CLOUDY    38  26  62 N7        30.38R WCI  33
6HR MIN TEMP:  38; 6HR MAX TEMP:  46;

VALDOSTA       MOCLDY    40  24  53 N14       30.40R WCI  32
6HR MIN TEMP:  40; 6HR MAX TEMP:  47;

ALMA           PTCLDY    38  24  57 N5        30.39R WCI  34
6HR MIN TEMP:  38; 6HR MAX TEMP:  45;

ST SIMONS      CLEAR     43  27  53 N9        30.36R
6HR MIN TEMP:  43; 6HR MAX TEMP:  49;

FT STEWART     CLOUDY    38  25  60 CALM      30.36R
ALBANY         CLEAR     37  20  50 N7        30.45R WCI  32
HUNTER AFB     CLOUDY    40  29  66 NW8       30.35R WCI  34
MOODY AFB      MOCLDY    39  24  55 N9        30.39R WCI  33
BRUNSWICK      CLEAR     43  32  65 NW6       30.38R


CITY           SKY/WX    TMP DP  RH WIND       PRES   REMARKS
BAINBRIDGE*    CLOUDY    37  25  60 N9        30.44R WCI  31
MOULTRIE*      CLEAR     39  25  56 N7        30.41R WCI  34
VIDALIA*       CLEAR     36  30  80 N6        30.40R WCI  31
WAYCROSS*      PTCLDY    41  29  62 N6        30.39R
DOUGLAS*       PTCLDY    39  23  52 N6        30.42R WCI  35
$$




USA.gov is the U.S. government's official web portal to all federal, state and local government web resources and services.